User: anonymous   Login
Location: Campo Alegre
(10.1673°N, 67.4431°W)
Time: 06:55:58
(UTC+00:00)
Language:

Ariane H10-3 - Orbit

View from above orbital plane
View from above orbital plane
View from above satellite
View from above satellite

Ground track
Ground track

The orbit data is extracted from the following two-line orbital elements,

1 23847U 96022B   24164.23800842  .00003049  00000-0  14992-2 0  9990
2 23847   6.7500  85.7723 6638504 231.8367  47.4494  3.09651440283106
Epoch (UTC): 12 June 2024 05:42:43
Eccentricity: 0.6638504
inclination: 6.7500°
perigee height: 305 km
apogee height: 26704 km
right ascension of ascending node: 85.7723°
argument of perigee: 231.8367°
revolutions per day: 3.09651440
mean anomaly at epoch: 47.4494°
orbit number at epoch: 28310

The dashed part of the orbit path shows where the satellite is in the earth's shadow,  

DLR